TimeEST,TemperatureF,Dew PointF,Humidity,Sea Level PressureIn,VisibilityMPH,Wind Direction,Wind SpeedMPH,Gust SpeedMPH,PrecipitationIn,Events,Conditions,WindDirDegrees,DateUTC
12:54 AM,30.0,23.0,75,30.24,10.0,SSE,3.5,-,N/A,,Overcast,150,2011-12-18 05:54:00
1:54 AM,30.9,24.1,76,30.25,10.0,NNE,3.5,-,N/A,,Overcast,20,2011-12-18 06:54:00
2:54 AM,32.0,23.0,69,30.25,10.0,Calm,Calm,-,N/A,,Overcast,0,2011-12-18 07:54:00
3:54 AM,35.1,23.0,61,30.24,10.0,WNW,8.1,-,N/A,,Mostly Cloudy,290,2011-12-18 08:54:00
4:54 AM,35.1,21.0,57,30.24,10.0,West,3.5,-,N/A,,Mostly Cloudy,260,2011-12-18 09:54:00
5:54 AM,36.0,23.0,59,30.25,10.0,WNW,5.8,16.1,N/A,,Overcast,290,2011-12-18 10:54:00
6:54 AM,35.6,24.8,65,30.25,10.0,WNW,6.9,-,N/A,,Overcast,290,2011-12-18 11:54:00
7:54 AM,37.0,21.0,52,30.30,10.0,NW,9.2,-,N/A,,Overcast,310,2011-12-18 12:54:00
8:54 AM,37.9,23.0,55,30.32,10.0,NW,13.8,20.7,N/A,,Overcast,320,2011-12-18 13:54:00
9:54 AM,39.9,23.0,51,30.33,10.0,NW,16.1,21.9,N/A,,Mostly Cloudy,310,2011-12-18 14:54:00
10:54 AM,41.0,23.0,49,30.32,10.0,WNW,20.7,31.1,N/A,,Scattered Clouds,290,2011-12-18 15:54:00
11:54 AM,43.0,24.1,47,30.30,10.0,WNW,12.7,25.3,N/A,,Partly Cloudy,300,2011-12-18 16:54:00
12:54 PM,45.0,21.9,40,30.26,10.0,WNW,9.2,17.3,N/A,,Partly Cloudy,290,2011-12-18 17:54:00
1:54 PM,46.4,21.2,37,30.23,10.0,WNW,9.2,-,N/A,,Partly Cloudy,290,2011-12-18 18:54:00
2:54 PM,46.9,21.0,36,30.26,10.0,WNW,9.2,-,N/A,,Clear,290,2011-12-18 19:54:00
3:54 PM,46.4,19.4,34,30.25,10.0,NW,9.2,-,N/A,,Clear,310,2011-12-18 20:54:00
4:54 PM,45.0,19.0,36,30.30,10.0,NW,5.8,-,N/A,,Clear,310,2011-12-18 21:54:00
5:54 PM,42.1,19.0,40,30.32,10.0,NNW,6.9,-,N/A,,Clear,330,2011-12-18 22:54:00
6:54 PM,37.9,21.0,51,30.34,10.0,NW,8.1,-,N/A,,Clear,320,2011-12-18 23:54:00
7:54 PM,39.0,19.9,46,30.34,10.0,Calm,Calm,-,N/A,,Clear,0,2011-12-19 00:54:00
8:54 PM,34.0,21.9,61,30.35,10.0,NNW,3.5,-,N/A,,Clear,330,2011-12-19 01:54:00
9:54 PM,32.0,23.0,69,30.33,10.0,Calm,Calm,-,N/A,,Clear,0,2011-12-19 02:54:00
10:54 PM,32.0,23.0,69,30.34,10.0,Calm,Calm,-,N/A,,Clear,0,2011-12-19 03:54:00
11:54 PM,32.0,23.0,69,30.33,10.0,NNW,3.5,-,N/A,,Clear,340,2011-12-19 04:54:00